Tracking 30746 objects as of 19-Jun-2025
HD Live streaming from Space Station
objects crossing your sky now

STARLINK-30885

Track STARLINK-30885 now!
10-day predictions
STARLINK-30885 is classified as:


NORAD ID: 58361
Int'l Code: 2023-177L
Perigee: 565.4 km
Apogee: 567.0 km
Inclination: 43.0 °
Period: 95.8 minutes
Semi major axis: 6937 km
RCS: Unknown
Launch date: November 18, 2023
Source: United States (US)
Launch site: AIR FORCE EASTERN TEST RANGE (AFETR)
Your satellite tracking list
Your tracking list is empty




NASA's NSSDC Master Catalog

Two Line Element Set (TLE):
1 58361U 23177L   25170.17665886 -.00000192  00000-0  88215-6 0  9998
2 58361  43.0044 343.7013 0001199 263.7048  96.3657 15.02542846 88594
Source of the keplerian elements: AFSPC